Gao Fen 14-02

operational
NORAD ID: 66175 Int'l Des: 2025-242 Owner: YWZB Country: CN
LEOCIRCULARRETROGRADESSO

Gao Fen 14-02について

説明を読み込み中...

リアルタイム位置

3D地球を読み込み中...

次回通過

高度履歴

Altitude vs Time

uPlot chart will show altitude changes over time

軌道要素

1 66175U 25242A 25351.30767387 .00006519 00000-0 25904-3 0 9991
2 66175 97.4351 63.2944 0001649 99.2332 260.9093 15.25654194 7965
Epoch: Dec 17, 2025 • Age: 11 hours

現在のステータス

高度 496.5 km
速度 7.62 km/s
衛星直下点 -18.26°S, 64.73°E
打ち上げ日 Oct 26, 2025
運用期間 0.1 years
タイプ other

技術仕様

分類 Payload
質量 6500.00 kg
乾燥質量 5500.00 kg
総質量 6500.00 kg
長さ 6.00 m
直径 2.50 m
スパン 15.00 m
形状 Box + 2 Pan
製造者 CAST
バスタイプ GF-14
フェーズステータス In Orbit
所有者/国 YWZB/CN

大規模コンステレーション

Loading constellations...